AirNav    Bose A20 Aviation Headset
 
 1134 users online  

3CK Lake in the Hills Airport
Chicago/Lake In The Hills, Illinois, USA

GOING TO CHICAGO/LAKE IN THE HILLS?


FAA INFORMATION EFFECTIVE 15 AUGUST 2019

Location

FAA Identifier: 3CK
Lat/Long: 42-12-24.5133N 088-19-22.7894W
42-12.408555N 088-19.379823W
42.2068092,-88.3229971
(estimated)
Elevation: 887.3 ft. / 270.4 m (surveyed)
Variation: 02W (2000)
From city: 38 miles NW of central business district of the associated city
Time zone: UTC -5 (UTC -6 during Standard Time)
Zip code: 60102

Airport Operations

Airport use: Open to the public
Activation date: 07/1958
Control tower: no
ARTCC: CHICAGO CENTER
FSS: KANKAKEE FLIGHT SERVICE STATION
NOTAMs facility: IKK (NOTAM-D service available)
Attendance: MAY-OCT MON-SUN 0800-1700, NOV-APR MON-SUN 0900-1600
Wind indicator: lighted
Segmented circle: no
Lights: ACTVT LIRL RWY 08/26 - CTAF.
Beacon: white-green (lighted land airport)
Operates sunset to sunrise.

Airport Communications

CTAF/UNICOM: 123.05
CHICAGO APPROACH: 120.55
CHICAGO DEPARTURE: 120.55
WX AWOS-3 at 06C (16 nm SE): 128.275 ((847) 895-2887)
WX ASOS at DPA (18 nm S): PHONE 630-584-2728
WX ASOS at PWK (20 nm E): PHONE 847-465-0291

Nearby radio navigation aids

VOR radial/distance  VOR name  Freq  Var
OBKr269/16.5NORTHBROOK VOR/DME113.0002W
DPAr002/19.0DUPAGE VOR/DME108.4002E
RFDr091/39.0ROCKFORD VOR/DME110.8001E
JOTr358/39.6JOLIET VOR/DME112.3002E

 
NDB name  Hdg/Dist  Freq  Var  ID
LAKE LAWN160/31.940402WLVV .-.. ...- ...-

Airport Services

Fuel available: 100LL JET-A
Parking: hangars and tiedowns
Airframe service: MAJOR
Powerplant service: MAJOR
Bottled oxygen: HIGH/LOW
Bulk oxygen: HIGH/LOW

Runway Information

Runway 8/26

Dimensions: 3801 x 50 ft. / 1159 x 15 m
Surface: asphalt, in good condition
Weight bearing capacity: 
Single wheel: 12.5
Double wheel: 38.0
Runway edge lights: low intensity
RUNWAY 8  RUNWAY 26
Latitude: 42-12.352603N42-12.464505N
Longitude: 088-19.793958W088-18.965687W
Elevation: 884.7 ft.885.1 ft.
Traffic pattern: leftleft
Runway heading: 082 magnetic, 080 true262 magnetic, 260 true
Displaced threshold: 360 ft.382 ft.
Markings: nonprecision, in good conditionnonprecision, in good condition
Visual slope indicator: 2-light PAPI on left (3.00 degrees glide path)2-light PAPI on right (3.00 degrees glide path)
Runway end identifier lights: no
Touchdown point: yes, no lightsyes, no lights
Obstructions: 63 ft. trees, 1350 ft. from runway, 247 ft. right of centerline, 18:1 slope to clear
APCH RATIO 27:1 TO DSPLCD THR.
none
+10 FT SIGNS 100 FT 195 FT L + R; 15 FT ROAD 0 FT 186 FT L.

Airport Ownership and Management from official FAA records

Ownership: Publicly-owned
Owner: VILLAGE OF LAKE IN THE HILLS
600 HARVEST GATE
LAKE IN THE HILLS, IL 60156
Phone 847-960-7400
Manager: MICHAEL PERANICH
9010 HALIGUS ROAD
LAKE IN THE HILLS, IL 60156
Phone 815-479-7960
EXT: 2

Airport Operational Statistics

Aircraft based on the field: 108
Single engine airplanes: 97
Multi engine airplanes: 8
Jet airplanes: 2
Helicopters: 1
    
Aircraft operations: avg 93/day *
56% transient general aviation
44% local general aviation
* for 12-month period ending 30 August 2016

Additional Remarks

FOR VFR WX ADVISORY 5 CLICKS CTAF. PHONE 815-444-1729
FOR CD CTC CHICAGO APCH AT 847-289-0926.

Instrument Procedures

NOTE: All procedures below are presented as PDF files. If you need a reader for these files, you should download the free Adobe Reader.

NOT FOR NAVIGATION. Please procure official charts for flight.
FAA instrument procedures published for use from 15 August 2019 at 0901Z to 12 September 2019 at 0900Z.

 
IAPs - Instrument Approach Procedures
RNAV (GPS) RWY 08 **CHANGED**   download (198KB)
RNAV (GPS) RWY 26 **CHANGED**   download (185KB)
VOR RWY 26   download (229KB)
VOR-A   download (149KB)
NOTE: Special Take-Off Minimums/Departure Procedures apply   download (201KB)

Other nearby airports with instrument procedures:

10C - Galt Field Airport (12 nm N)
C81 - Campbell Airport (13 nm NE)
KDPA - DuPage Airport (18 nm S)
KPWK - Chicago Executive Airport (20 nm E)
KORD - Chicago O'Hare International Airport (23 nm SE)
 
Loc | Ops | Rwys | IFR | FBO | Links
Com | Nav | Svcs | Stats | Notes
Area around 3CK (Lake in the Hills Airport)
 
Road maps at: MapQuest Bing Google
 
Aerial photo
WARNING: Photo may not be current or correct
Aerial photo of 3CK (Lake in the Hills Airport)
Photo taken 17-May-2018
looking south from 2500 ft.

Do you have a better or more recent aerial photo of Lake in the Hills Airport that you would like to share? If so, please send us your photo.

 
Sectional chart

 
Airport diagram
CAUTION: Diagram may not be current
Diagram of 3CK (Lake in the Hills Airport)
 
Airport distance calculator
Flying to Lake in the Hills Airport? Find the distance to fly.

From to 3CK

Sunrise and sunset
Times for 25-Aug-2019
 Local
(UTC-5)
 Zulu
(UTC)
Morning civil twilight05:4310:43
Sunrise06:1211:12
Sunset19:3800:38
Evening civil twilight20:0801:08

Current date and time
Zulu (UTC)  25-Aug-2019 16:56:45
Local (UTC-5)  25-Aug-2019 11:56:45
 
METAR
K06C 
16nm SE 
251635Z AUTO 15008KT 10SM SCT048 25/13 A3012 RMK AO2 T02450133
KDPA 
18nm S 
251552Z 13008KT 10SM CLR 23/13 A3012 RMK AO2 SLP196 T02330128
KPWK 
20nm E 
251552Z 12008KT 10SM CLR 23/12 A3014 RMK AO2 SLP205 T02330122
KORD 
22nm SE 
251551Z 13008KT 10SM FEW035 FEW055 BKN250 23/12 A3013 RMK AO2 SLP199 T02280117
KDKB 
23nm SW 
251635Z AUTO 11011KT 10SM CLR 23/14 A3012 RMK AO2 T02320136
KUGN 
24nm NE 
251555Z 13009KT 10SM FEW025 22/15 A3014 RMK AO2 SLP197 T02170150 $
KARR 
27nm S 
251552Z 14007KT 10SM CLR 23/13 A3012 RMK AO2 SLP198 T02280133
KBUU 
29nm N 
251635Z AUTO 10010KT 10SM SCT037 SCT047 21/15 A3013 RMK AO2 T02100146
KENW 
29nm NE 
251553Z 12011KT 10SM FEW028 23/16 A3015 RMK AO2 SLP207 T02280156
TAF
KDPA 
18nm S 
251529Z 2515/2612 13009KT P6SM FEW045 BKN250 FM251700 10012KT P6SM FEW050 BKN200 FM260700 12008KT P6SM VCSH BKN050 FM260900 12007KT 6SM -SHRA OVC045
KORD 
22nm SE 
251529Z 2515/2618 13009KT P6SM FEW045 BKN250 FM251700 10012KT P6SM FEW050 BKN200 FM260700 12008KT P6SM VCSH BKN050 FM260900 12007KT 6SM -SHRA OVC045 FM261200 14007KT 3SM SHRA SCT008 OVC012 FM261600 16009KT P6SM VCSH OVC018
NOTAMs
Click for the latest NOTAMs
NOTAMs are issued by the DoD/FAA and will open in a separate window not controlled by AirNav.

 

 
 

FBO, Fuel Providers, and Aircraft Ground Support

  
 Business Name 
 
 Contact 
 
 Services / Description 
 
Fuel Prices
 
Comments
  
 Village of Lake in the Hills
815-479-7960
[web site]
[email]
Airport management, Aviation fuel, Aircraft parking (ramp or tiedown), Hangars, Hangar leasing / sales, Passenger terminal and lounge, ...

More info about Village of Lake in the Hills
Phillips 66
100LL Jet A
FS $5.15 $4.00 
SS $4.50 $3.40 
 Updated 23-Aug-2019
 
   1 read write
FS=Full service
SS=Self service
Update Fuel Prices
 

Aviation Businesses, Services, and Facilities

  
 Business Name 
 
 Contact 
 
 Services / Description 
 
Distance
 
Comments
  
Blue Skies Flying Services, Inc. 815-356-8121
[web site]
[email]
Hangars, Flight training, Aircraft rental, Aircraft maintenance, Aviation accessories, Pilot supplies, Rental cars delivered, Courtesy transportation, ...
 
PSI FAA Test Center   FAA Authorized Chart Agent  
 
More info about Blue Skies Flying Services, Inc.
on airport  
   write
 

Would you like to see your business listed on this page?

 If your business provides an interesting product or service to pilots, flight crews, aircraft, or users of the Lake in the Hills Airport, you should consider listing it here.  To start the listing process, click on the button below
 
Add a business
 

Other Pages about Lake in the Hills Airport

www.lith.org/airport.html
 
Update a link
 
Copyright © AirNav, LLC. All rights reserved. Privacy Policy  Contact